Regional Weather Roundup
Issued by NWS Sioux Falls, SD

Home | Current Version | Previous Version | Graphics & Text | Print | Product List | Glossary On
Versions: 1 2 3 4 5 6 7 8 9 10 11 12 13 14 15 16 17 18 19 20 21 22 23 24 25 26 27 28 29 30 31 32 33 34 35 36 37 38 39 40 41 42 43 44 45 46 47 48 49 50
000
ASUS43 KFSD 271110
RWRFSD

WEATHER ROUNDUP FOR SE SOUTH DAKOTA/SW MINNESOTA/NW IOWA
NATIONAL WEATHER SERVICE SIOUX FALLS SD
600 AM CDT WED JUL 27 2016

NOTE: "FAIR" INDICATES FEW OR NO CLOUDS BELOW 12,000 FEET WITH NO
SIGNIFICANT WEATHER AND OR OBSTRUCTIONS TO VISIBILITY.


SDZ038>040-050-052>070-271200-
SOUTHEAST SOUTH DAKOTA

CITY           SKY/WX    TMP DP  RH WIND       PRES   REMARKS
BROOKINGS      CLOUDY    67  65  93 CALM        N/A
CHAMBERLAIN    PTCLDY    66  62  86 NW8       30.00R
HURON          CLOUDY    66  64  93 NW8       29.97R
MADISON        FAIR      68  68 100 NW12G17   29.96F
MITCHELL       CLOUDY    68  61  78 NW10      29.98R
SIOUX FALLS    MOCLDY    70  61  73 W3        29.95R
WINNER         FAIR      62  58  86 SW7       30.03R
YANKTON        CLOUDY    66  61  82 SE8       29.96R
$$

MNZ071-072-080-081-089-090-097-098-271200-
SOUTHWEST MINNESOTA

CITY           SKY/WX    TMP DP  RH WIND       PRES   REMARKS
FAIRMONT       CLOUDY    66  63  88 S6        29.97S
JACKSON        CLOUDY    70  63  78 S6        29.99R
LUVERNE        CLOUDY    64  63  94 S7        29.97R
MARSHALL       CLOUDY    68  66  93 NW5       29.95R
MONTEVIDEO     CLOUDY    66  66 100 E9        29.97F
REDWOOD FALLS  CLOUDY    71  66  84 E3        29.94S
TRACY          CLOUDY    70  67  92 SW5       29.96R
WINDOM         CLOUDY    70  64  83 S6        29.97S
WORTHINGTON    CLOUDY    69  66  90 S12       29.97F
$$

IAZ001>003-012>014-020>022-031-032-NEZ013-014-SDZ071-271200-
NORTHWEST IOWA

CITY           SKY/WX    TMP DP  RH WIND       PRES   REMARKS
CHEROKEE       CLOUDY    68  66  96 S3        29.97R
DENISON        CLOUDY    70  64  83 SE8       29.94F
ESTHERVILLE    CLOUDY    64  64 100 S6        29.98R
LE MARS        CLOUDY    68  66  94 NE6       29.97R
SHELDON        CLOUDY    66  66 100 S7        29.98R
SIOUX CITY     CLOUDY    71  67  87 E9        29.92F
SPENCER        PTCLDY    66  63  90 CALM      29.98S
STORM LAKE     CLOUDY    66  64  94 S7        29.99R
$$

ABBREVIATIONS USED IN REMARKS
   TC - TEMPERATURE IN CELSIUS
  WCI - WIND CHILL INDEX
   HX - HEAT INDEX
  VSB - VISIBILITY




USA.gov is the U.S. government's official web portal to all federal, state and local government web resources and services.